AO-07 1 07530U 74089B 18270.49199611 -.00000047 00000-0 -13212-4 0 9997 2 07530 101.7000 236.3235 0012251 135.6895 336.0765 12.53634520 7411 UO-11 1 14781U 84021B 18270.55685285 .00000053 00000-0 12681-4 0 9998 2 14781 97.6408 302.3583 0009978 105.0485 255.1834 14.83032304859612 LO-19 1 20442U 90005G 18269.81285694 -.00000012 00000-0 11802-4 0 9995 2 20442 98.6157 207.7066 0011141 205.7681 154.2949 14.32905168498447 HUBBLE 1 20580U 90037B 18269.89973319 .00000487 00000-0 18839-4 0 9991 2 20580 28.4688 162.7000 0002815 152.0968 304.5351 15.09100273360846 MET-2/21 1 22782U 93055A 18270.47172545 .00000072 00000-0 51381-4 0 9997 2 22782 82.5530 12.7526 0021967 196.6615 212.7952 13.83814531266322 AO-27 1 22825U 93061C 18269.53422679 -.00000020 00000-0 10310-4 0 9994 2 22825 098.8739 247.5408 0009331 055.4532 304.7529 14.30040065304050 IO-26 1 22826U 93061D 18269.87732461 -.00000012 00000-0 13266-4 0 9999 2 22826 98.8680 247.9155 0009723 44.6223 315.5740 14.30372092304290 FO-29 1 24278U 96046B 18269.53326694 -.00000057 00000-0 -20938-4 0 9992 2 24278 098.5152 094.3204 0349903 207.8053 150.3992 13.53085976091949 NOAA-15 1 25338U 98030A 18280.46714411 .00000042 00000-0 36510-4 0 9993 2 25338 98.7664 296.9530 0009326 261.5618 98.4555 14.25878644 60760 GO-32 1 25397U 98043D 18269.79961615 -.00000019 00000-0 10904-4 0 9999 2 25397 98.6560 208.5862 0002422 85.8654 274.2801 14.23651791 50186 ISS 1 25544U 98067A 18270.64662037 .00001865 00000-0 35884-4 0 9994 2 25544 51.6408 228.1116 0003986 211.1899 141.3041 15.53739941134441 NO-44 1 26931U 01043C 18269.59302139 .00000001 00000-0 32108-4 0 9996 2 26931 067.0522 327.7494 0007443 260.7473 099.2786 14.30517651886981 SO-50 1 27607U 02058C 18269.87997570 .00000003 00000-0 21293-4 0 9999 2 27607 64.5543 139.1784 0074665 307.2186 52.2118 14.75482699847967 CO-55 1 27844U 03031E 18269.83525069 .00000037 00000-0 36276-4 0 9994 2 27844 98.6879 276.9953 0010940 78.9116 281.3292 14.22134720790640 CO-57 1 27848U 03031J 18269.54145268 .00000029 00000-0 32874-4 0 9996 2 27848 098.6963 277.1366 0010859 089.3876 270.8546 14.21736205790467 RS-22 1 27939U 03042A 18270.57593928 .00000087 00000-0 24091-4 0 9990 2 27939 98.0057 47.1544 0013018 178.3688 244.9159 14.66718064801826 NOAA-18 1 28654U 05018A 18280.46091413 -.00000083 00000-0 -19743-4 0 9997 2 28654 99.1352 318.1376 0014436 168.1839 192.0099 14.12386110689537 CO-58 1 28895U 05043F 18270.34848554 .00000129 00000-0 33549-4 0 9993 2 28895 97.9235 57.7509 0018167 105.7625 254.5583 14.63584180688825 Falconsat-3 1 30776U 07006E 18270.20580021 .00002417 00000-0 71065-4 0 9999 2 30776 35.4366 337.0951 0003489 242.4769 117.5603 15.34956625640007 CO-65 1 32785U 08021C 18270.18373212 .00000193 00000-0 26544-4 0 9999 2 32785 97.5475 277.4942 0014502 63.4681 296.8022 14.88178675564345 AAUSAT2 1 32788U 08021F 18270.53361397 .00000603 00000-0 60871-4 0 9999 2 32788 97.5163 292.7503 0012027 13.5864 346.5678 14.94457667565466 DO-64 1 32789U 08021G 18270.15441597 .00001514 00000-0 10702-3 0 9998 2 32789 97.5024 322.3399 0011066 314.3933 45.6388 15.06324703567136 CO-66 1 32791U 08021J 18270.50804680 .00000354 00000-0 41422-4 0 9991 2 32791 97.5344 283.3814 0014448 43.1054 317.1293 14.90634011564755 RS-30 1 32953U 08025A 18270.49579046 .00000028 00000-0 13328-3 0 9999 2 32953 82.5014 309.0568 0018618 350.2593 9.8123 12.43085773469480 PRISM 1 33493U 09002B 18270.55100359 .00000588 00000-0 57519-4 0 9991 2 33493 98.1185 176.5244 0015165 340.7676 19.2982 14.96338817525650 NOAA-19 1 33591U 09005A 18280.43051655 .00000069 00000-0 62554-4 0 9994 2 33591 99.1533 260.7471 0014433 15.6317 344.5488 14.12312695497750 TISAT-1 1 36799U 10035E 18269.93251688 .00000519 00000-0 58680-4 0 9997 2 36799 98.1211 48.9366 0011331 230.5561 129.4654 14.90887077445314 JUGNU 1 37839U 11058B 18268.10012719 .00000298 00000-0 17037-4 0 9992 2 37839 019.9606 151.3919 0018877 268.1386 240.9697 14.12629536359516 SRMSAT 1 37841U 11058D 18268.18928510 .00000305 00000-0 22202-4 0 9997 2 37841 019.9711 202.1189 0011991 148.8186 350.0938 14.10614886359018 AO-71 1 37854U 11061E 18270.55522955 .00002071 00000-0 11410-3 0 9992 2 37854 101.7038 27.9483 0162835 129.8773 231.6889 15.05746362377232 HRBE 1 37855U 11061F 18270.21888085 .00002129 00000-0 11506-3 0 9995 2 37855 101.7159 24.9456 0175783 140.2511 221.1734 15.04726662376992 ALMASAT-1 1 38078U 12006B 18270.46422253 .00029440 40960-5 23035-3 0 9990 2 38078 69.4314 292.5598 0222999 310.1884 155.3331 15.46001414356431 HORYU-2 1 38340U 12025D 18270.12902294 .00000163 00000-0 31998-4 0 9999 2 38340 98.3609 295.3212 0010415 243.6510 116.3629 14.75603614342140 RS-40 1 38735U 12041C 18270.53187393 .00000012 00000-0 17040-4 0 9990 2 38735 82.4794 32.7940 0017778 92.2281 268.0834 12.42577549279747 BEESAT-3 1 39135U 13015F 18270.15486614 .00000733 00000-0 46901-4 0 9991 2 39135 64.8685 171.6945 0013462 232.6742 127.3158 15.16889164300116 BEESAT-2 1 39136U 13015G 18270.22678005 .00000654 00000-0 43570-4 0 9998 2 39136 64.8695 174.5250 0013888 233.3188 126.6662 15.16348096300063 ZACUBE-1 1 39417U 13066B 18270.13539969 .00000181 00000-0 29217-4 0 9998 2 39417 97.5814 293.2989 0059108 179.7356 180.3899 14.80983327261881 TRITON-1 1 39427U 13066M 18270.22243744 .00000177 00000-0 36547-4 0 9991 2 39427 97.6495 259.4326 0112643 292.8476 66.0867 14.67719536259540 GOMX-1 1 39430U 13066Q 18270.55100824 .00000222 00000-0 49190-4 0 9991 2 39430 97.7090 240.1098 0151827 8.0283 352.3295 14.59129954258072 LO-74 1 39440U 13066AA 18269.98492320 .00000181 00000-0 32336-4 0 9990 2 39440 97.6008 279.1706 0079341 224.1583 135.3277 14.75724161260939 AO-73 1 39444U 13066AE 18269.87458246 .00000231 00000-0 34870-4 0 9992 2 39444 97.5818 294.7049 0058365 175.5503 184.6242 14.81776987260713 SPROUT 1 39770U 14029E 18270.34270392 .00000745 00000-0 89392-4 0 9991 2 39770 97.8789 10.5665 0008083 229.5213 130.5294 14.86982824235547 DUCHIFAT-1 1 40021U 14033M 18270.31178599 .00000411 00000-0 48078-4 0 9996 2 40021 97.9129 189.2036 0012275 196.0601 164.0230 14.90394880232161 NANOSATCBR1 1 40024U 14033Q 18270.33660761 .00000323 00000-0 39679-4 0 9997 2 40024 97.9055 187.2633 0011578 198.4701 161.6097 14.89645769232083 EO-79 1 40025U 14033R 18270.30923248 .00000293 00000-0 37272-4 0 9990 2 40025 97.9005 185.4764 0011716 203.6180 156.4500 14.88778992231981 DTUSAT-2 1 40030U 14033W 18270.30127571 .00000252 00000-0 33196-4 0 9997 2 40030 97.8945 184.0290 0011256 198.2099 161.8716 14.88382138231921 EO-80 1 40032U 14033Y 18269.82561135 .00000254 00000-0 33501-4 0 9994 2 40032 97.8951 183.5573 0011177 200.4680 159.6090 14.88320664231849 ANTELSAT 1 40034U 14033AA 18269.62600124 .00000182 00000-0 34605-4 0 9992 2 40034 097.7952 142.4748 0057607 230.5328 129.0777 14.73973202229093 VELOX-1 1 40057U 14034E 18270.43726170 .00000276 00000-0 46383-4 0 9999 2 40057 98.2119 23.3022 0011125 7.4097 352.7283 14.77493836228742 DAURIA DX 1 1 40071U 14037C 18270.35893546 .00000099 00000-0 20255-4 0 9994 2 40071 98.3895 46.3640 0008574 2.3642 357.7613 14.81191885228123 UKUBE-1 1 40074U 14037F 18270.44822740 .00000248 00000-0 37035-4 0 9995 2 40074 98.3999 52.9612 0005054 357.7942 2.3243 14.83867110228465 HODOYOSHI-1 1 40299U 14070B 18270.42320896 .00000707 00000-0 32967-4 0 9993 2 40299 97.3729 350.3696 0011357 249.8401 173.4035 15.23033251216041 CHUBUSAT-1 1 40300U 14070C 18270.27197481 .00000734 00000-0 35373-4 0 9995 2 40300 97.3567 345.7572 0018809 265.1137 130.3973 15.21716024215801 QSAT-EOS 1 40301U 14070D 18270.41906428 .00001760 00000-0 72735-4 0 9994 2 40301 97.3535 347.6258 0024737 251.2731 171.6311 15.25069563216002 FIREBIRD FU3 1 40377U 15003B 18270.46137325 .00001800 00000-0 76765-4 0 9993 2 40377 99.0804 192.4700 0128966 250.2781 108.4499 15.17646494201839 FIREBIRD FU4 1 40378U 15003C 18270.31778104 .00001679 00000-0 71847-4 0 9994 2 40378 99.0806 192.3608 0129203 250.6493 108.0730 15.17653801201819 GRIFEX 1 40379U 15003D 18270.55108547 .00001328 00000-0 61910-4 0 9990 2 40379 99.0818 188.2594 0136410 264.1840 94.3823 15.14648945201590 NO-84 1 40654U 15025D 18269.33738054 .00010665 00000-0 16764-3 0 04182 2 40654 054.9915 298.8305 0153540 008.3641 351.9817 15.42011703071443 NO-83 1 40655U 15025E 18269.35799010 .00032793 00000-0 30199-3 0 04908 2 40655 054.9713 229.3599 0100520 049.9769 310.9879 15.61058793072069 DEORBITSAIL 1 40719U 15032E 18269.50012213 .00000364 00000-0 59366-4 0 9998 2 40719 097.9318 161.3049 0017874 081.1236 279.1997 14.76519028173123 NUDT-PHONESAT 1 40900U 15049B 18270.50528586 .00002069 00000-0 94260-4 0 9991 2 40900 97.4417 277.6056 0014365 37.6247 322.5991 15.21715633167478 XW-2A 1 40903U 15049E 18270.47068940 .00001912 00000-0 48529-4 0 9996 2 40903 97.3753 306.3134 0014732 27.8680 332.3353 15.40868688169552 XW-2C 1 40906U 15049H 18270.54390957 .00000598 00000-0 35187-4 0 9998 2 40906 97.4632 272.1830 0016082 40.2564 319.9856 15.15324441166995 XW-2D 1 40907U 15049J 18270.55185749 .00000651 00000-0 37789-4 0 9991 2 40907 97.4607 271.8775 0015392 38.3042 321.9281 15.15485614167002 LILACSAT-2 1 40908U 15049K 18270.55214304 .00000357 00000-0 23464-4 0 9990 2 40908 97.4723 271.1014 0017098 40.5165 319.7335 15.13592077166854 XW-2E 1 40909U 15049L 18270.53685645 .00001006 00000-0 53846-4 0 9998 2 40909 97.4584 274.0684 0014870 36.8573 323.3680 15.17226675167139 XW-2F 1 40910U 15049M 18270.48373033 .00001025 00000-0 55544-4 0 9997 2 40910 97.4602 273.3122 0015965 33.6207 326.6036 15.16744140166968 XW-2B 1 40911U 15049N 18270.50721970 .00000677 00000-0 39249-4 0 9994 2 40911 97.4640 272.4082 0015305 39.1068 321.1267 15.15426336166891 DCBB 1 40912U 15049P 18270.34032510 .00001424 00000-0 71141-4 0 9990 2 40912 97.4514 276.2437 0016054 20.6639 104.2891 15.18989928167178 TW-1C 1 40926U 15051B 18270.35550999 .00009775 00000-0 17201-3 0 9998 2 40926 97.1733 312.2675 0007797 262.0908 220.3390 15.50633154169138 TW-1A 1 40928U 15051D 18270.48833447 .00003188 00000-0 83922-4 0 9992 2 40928 97.1771 302.4384 0010503 319.9264 150.5618 15.39226313168516 IO-86 1 40931U 15052B 18270.11807556 .00000664 00000-0 33476-5 0 9995 2 40931 6.0006 143.2479 0013976 14.6247 345.6267 14.76584823162090 LQSat 1 40958U 15057A 18270.39682988 .00000026 00000-0 11746-4 0 9996 2 40958 97.9326 341.2461 0018643 13.3410 346.8281 14.73049242159899 ATHENOXAT-1 1 41168U 15077C 18268.87457176 .00001136 00000-0 24856-4 0 9990 2 41168 14.9919 3.2700 0012148 5.5944 301.0130 15.12994142153645 ChubuSat-2 1 41338U 16012B 18270.52581646 .00000330 00000-0 19068-4 0 9998 2 41338 31.0042 23.4201 0013915 6.2351 353.8455 15.00029530143218 ChubuSat-3 1 41339U 16012C 18270.52691424 .00000296 00000-0 16298-4 0 9998 2 41339 31.0121 21.8646 0013348 12.0844 348.0113 15.00213201143200 Horyu-4 1 41340U 16012D 18270.52891140 .00000486 00000-0 30417-4 0 9997 2 41340 31.0062 15.6815 0014111 27.6962 332.4423 15.01063871143283 OUFTI-1 1 41458U 16025C 18270.43983277 .00001735 00000-0 93050-4 0 9994 2 41458 98.1282 338.7243 0169729 164.2172 196.4429 15.04966574132818 e-st@r-II 1 41459U 16025D 18270.46580122 .00003153 00000-0 16629-3 0 9992 2 41459 98.1289 338.5467 0170452 165.2731 195.3534 15.04683194132807 AAUSAT4 1 41460U 16025E 18270.40954035 .00003744 00000-0 19420-3 0 9994 2 41460 98.1220 339.1609 0161264 160.5869 200.1608 15.06225638132871 LO-87 1 41557U 16033B 18270.29719313 .00001330 00000-0 52706-4 0 9999 2 41557 97.4336 354.2157 0014439 146.0689 214.1477 15.27102876129746 NuSat2 1 41558U 16033C 18270.31333637 .00001453 00000-0 55143-4 0 9998 2 41558 97.4356 354.4828 0014056 148.9166 211.2908 15.28406686129746 Lapan A3 1 41603U 16040E 18270.53989715 .00000160 00000-0 10718-4 0 9998 2 41603 97.4013 330.1441 0012001 241.2815 226.2601 15.19610120125624 Swayam 1 41607U 16040J 18270.13284597 .00001495 00000-0 67440-4 0 9990 2 41607 97.4032 331.6622 0012301 236.8580 123.1476 15.22519710125619 Pratham 1 41783U 16059A 18270.39006427 .00000051 00000-0 19249-4 0 9998 2 41783 98.1072 330.2431 0034636 133.3302 227.0796 14.62944921106906 AlSat 1N 1 41789U 16059G 18270.46631010 .00000051 00000-0 18843-4 0 9993 2 41789 98.1102 331.7518 0029433 123.7873 236.6151 14.64181429106980 ScatSat 1 41790U 16059H 18280.44982916 -.00000026 00000-0 45505-5 0 9997 2 41790 98.2486 326.1298 0019396 105.2429 255.0878 14.50875073107465 TY-1 1 41844U 16066D 18270.54621534 .00001808 00000-0 78418-4 0 9997 2 41844 97.4063 276.1755 0016945 41.6835 72.2736 15.23536985104466 Pegasus-1 1 41846U 16066F 18270.51628738 .00000232 00000-0 46783-4 0 9999 2 41846 98.7471 301.0360 0367092 303.3141 53.3389 14.37408071 98605 CAS-2T 1 41847U 16066G 18269.70580446 .00000043 00000-0 18087-4 0 9998 2 41847 98.7428 300.6926 0365202 302.9658 53.6906 14.37923876 98917 TO-89 1 41932U 98067KU 18270.00883498 .00070610 00000-0 29755-3 0 9992 2 41932 51.6288 173.2547 0002999 193.4815 166.6109 15.84797149 96863 AOBA-V3LOX3 1 41935U 98067KX 18269.93142692 .00161465 21421-4 39646-3 0 9992 2 41935 51.6303 164.3603 0003803 194.9178 165.1718 15.95744363 97077 AO-85 1 40967U 15058D 18269.51036869 .00000266 00000-0 44980-4 0 04605 2 40967 064.7749 243.6396 0213390 283.0624 074.6739 14.75784595068602 EO-88 1 42017U 17008BX 18269.69713925 .00001467 00000-0 62160-4 0 9995 2 42017 97.4387 334.1151 0007154 36.0936 324.0784 15.24733504 89533 HAVELSAT 1 42700U 98067LH 18270.04652054 .00046784 00000-0 27670-3 0 9991 2 42700 51.6297 191.6362 0001007 270.6419 89.4467 15.77615832 78064 SOMP2 1 42701U 98067LJ 18270.36745530 .00040922 00000-0 25963-3 0 9990 2 42701 51.6355 192.3140 0001184 240.4193 119.6689 15.76084992 78071 PHOENIX 1 42706U 98067LP 18270.25440248 .00032480 00000-0 23071-3 0 9999 2 42706 51.6351 194.5846 0001758 145.0502 215.0613 15.73587141 77955 X-CubeSat 1 42707U 98067LQ 18270.03623400 .00057688 00000-0 32064-3 0 9998 2 42707 51.6316 190.7233 0002058 154.7525 205.3577 15.78915061 77975 qbee 1 42708U 98067LR 18270.30895747 .00046796 00000-0 28106-3 0 9994 2 42708 51.6303 191.1498 0001566 133.4411 226.6720 15.77268774 77956 ZA-AeroSat 1 42713U 98067LU 18270.24793148 .00029614 00000-0 22459-3 0 9990 2 42713 51.6337 198.2825 0002359 158.2340 201.8759 15.72092385 77560 LINK 1 42714U 98067LV 18265.92001965 .06744984 12188-4 74906-3 0 9997 2 42714 051.6396 192.6696 0007557 179.7176 180.2695 16.36256502077350 UPSat 1 42716U 98067LX 18270.18687607 .00137075 00000-0 46036-3 0 9996 2 42716 51.6279 181.1433 0002388 173.9566 186.1469 15.89168873 77916 SpaceCube 1 42717U 98067LY 18270.40799819 .00048186 00000-0 29029-3 0 9998 2 42717 51.6265 191.0011 0000576 216.1519 143.9442 15.77187458 77042 Hoopoe 1 42718U 98067LZ 18270.06816620 .00085140 00000-0 39371-3 0 9993 2 42718 51.6274 187.1817 0001787 172.5604 187.5425 15.82765871 77062 NJUST-1 1 42722U 98067MB 18270.44210133 .00024112 00000-0 19405-3 0 9995 2 42722 51.6346 199.6178 0003162 246.4837 113.5829 15.70796501 76633 UNSW-EC0 1 42723U 98067MC 18270.23917940 .00099121 00000-0 40963-3 0 9998 2 42723 51.6374 185.4296 0002096 197.9144 162.1786 15.85075936 76781 LO-90 1 42725U 98067ME 18270.28013907 .00042407 00000-0 28315-3 0 9997 2 42725 51.6342 195.5044 0002087 229.4311 130.6507 15.74894141 76571 nSIGHT1 1 42726U 98067MF 18270.46530948 .00012936 00000-0 14337-3 0 9990 2 42726 51.6385 211.1484 0003814 251.8885 108.1695 15.63345777 76398 SNUSAT 1B 1 42727U 98067MG 18270.35708141 .00038815 00000-0 26022-3 0 9999 2 42727 51.6332 195.1912 0004307 201.2394 158.8427 15.74834252 76556 QBITO 1 42728U 98067MH 18270.02477319 .00051920 00000-0 30383-3 0 9991 2 42728 51.6348 193.0951 0001209 184.4704 175.6286 15.77810137 76390 Aalto-2 1 42729U 98067MJ 18270.35791773 .00053451 00000-0 30319-3 0 9991 2 42729 51.6300 190.7083 0001081 160.4304 199.6739 15.78495488 76463 SUSat 1 42730U 98067MK 18270.22666526 .00043581 00000-0 28101-3 0 9995 2 42730 51.6337 194.3671 0001116 186.1377 173.9609 15.75685771 76398 i-INSPIRE II 1 42731U 98067ML 18270.05629571 .00120050 00000-0 47029-3 0 9993 2 42731 51.6331 184.8375 0004476 174.3371 185.7684 15.86096547 76554 PolyITAN-2-SAU 1 42732U 98067MM 18270.37434822 .00052913 00000-0 29815-3 0 9997 2 42732 51.6323 190.0416 0004403 183.6561 176.4409 15.78637698 76512 ExAlta-1 1 42734U 98067MP 18270.02158506 .00120753 00000-0 41990-3 0 9999 2 42734 51.6245 183.7200 0003682 195.7035 164.3856 15.88520568 76515 Aoxiang-1 1 42735U 98067MQ 18270.31856899 .00025871 00000-0 20363-3 0 9998 2 42735 51.6334 199.5071 0003525 243.5256 116.5380 15.71283322 77753 BeEagleSat 1 42736U 98067MR 18270.06480511 .00036800 00000-0 25984-3 0 9993 2 42736 51.6331 197.7827 0003137 235.6006 124.4697 15.73659419 76444 CAS-4B 1 42759U 17034B 18270.45733456 .00000316 00000-0 32996-4 0 9990 2 42759 43.0184 241.7899 0009976 20.6931 122.9255 15.09376824 70908 CAS-4A 1 42761U 17034D 18270.43366706 .00000189 00000-0 25159-4 0 9992 2 42761 43.0179 241.6253 0010159 21.9294 120.4817 15.09451960 70899 UCLSat 1 42765U 17036A 18269.65596921 .00001173 00000-0 54168-4 0 9990 2 42765 97.3906 327.8250 0013447 82.5823 277.6940 15.22085403 70141 NIUSat 1 42766U 17036B 18270.13983132 .00001009 00000-0 49010-4 0 9998 2 42766 97.3905 327.3507 0017497 70.0045 290.3073 15.20587057 70024 LituanicaSAT 2 1 42768U 17036D 18269.74052543 .00001879 00000-0 85695-4 0 9992 2 42768 97.3925 327.4705 0017182 73.2416 287.0704 15.21751519 70006 Aalto 1 1 42775U 17036L 18269.75335013 .00000793 00000-0 38877-4 0 9991 2 42775 97.3898 327.2255 0015767 71.6228 288.6721 15.20906755 69930 URSA MAIOR 1 42776U 17036M 18269.47102546 .00000896 00000-0 43409-4 0 9995 2 42776 097.3905 327.0219 0015620 072.7457 287.5486 15.21000642069894 Max Valier Sat 1 42778U 17036P 18269.59920457 .00000988 00000-0 46875-4 0 9991 2 42778 097.3933 327.5818 0014242 077.0754 283.2071 15.21502685069925 Pegasus 1 42784U 17036V 18269.64066443 .00001149 00000-0 53433-4 0 9998 2 42784 97.3909 327.7101 0013972 82.6418 277.6405 15.21884838 69943 NUDATSat 1 42787U 17036Y 18270.43754632 .00001764 00000-0 78840-4 0 9996 2 42787 97.3917 328.8010 0013451 79.7864 280.4889 15.22563162 69921 SUCHAI 1 1 42788U 17036Z 18269.38160465 .00001424 00000-0 64927-4 0 9998 2 42788 097.3911 327.5995 0013576 083.2595 277.0186 15.22190872069985 SKCUBE 1 42789U 17036AA 18269.12109288 .00001336 00000-0 61201-4 0 9991 2 42789 097.3909 327.3282 0013429 084.0497 276.2269 15.22135878069862 VZLUSAT 1 1 42790U 17036AB 18269.24270888 .00001794 00000-0 80118-4 0 9997 2 42790 097.3916 327.6323 0013033 083.8243 276.4478 15.22573424069898 VENTA 1 1 42791U 17036AC 18269.23116520 .00001280 00000-0 58713-4 0 9995 2 42791 097.3909 327.4817 0013062 084.3076 275.9649 15.22173250069874 Robusta 1B 1 42792U 17036AD 18269.60578979 .00001345 00000-0 61312-4 0 9998 2 42792 097.3908 327.8882 0013007 083.5121 276.7596 15.22292445069958 D-SAT 1 42794U 17036AF 18270.12553966 .00000077 00000-0 12423-4 0 9998 2 42794 97.5807 320.8720 0125594 303.3711 55.5539 14.90932756 68912 BIRD-J 1 42820U 98067MU 18270.19750534 .00033580 00000-0 24875-3 0 9996 2 42820 51.6331 200.1861 0003041 155.9002 204.2139 15.72579636 69888 BIRD-G 1 42821U 98067MV 18270.22907971 .00032736 00000-0 25152-3 0 9991 2 42821 51.6333 201.1546 0002915 159.2580 200.8537 15.71726446 69852 BIRD-M 1 42822U 98067MW 18269.87176770 .00033121 00000-0 25006-3 0 9993 2 42822 51.6335 202.5220 0002969 158.3268 201.7856 15.72136565 69808 BIRD-B 1 42823U 98067MX 18270.24021872 .00034589 00000-0 25846-3 0 9990 2 42823 51.6345 200.5062 0003929 191.6573 168.4335 15.72355431 69860 BIRD-N 1 42824U 98067MY 18269.83606562 .00028532 00000-0 21742-3 0 9991 2 42824 51.6348 203.0798 0003878 190.3662 169.7257 15.71995989 69781 TechnoSat 1 42829U 17042E 18270.51703650 .00000142 00000-0 19805-4 0 9998 2 42829 97.5852 168.9565 0013247 214.3509 145.6854 14.90864389 65572 TOMSK-TPU 120 1 42910U 98067MZ 18270.44211866 .00020304 00000-0 18783-3 0 9995 2 42910 51.6339 207.0934 0004214 222.9970 137.0697 15.67509179 63408 TANYUSHA 1 1 42911U 98067NA 18270.40653208 .00024745 00000-0 21327-3 0 9993 2 42911 51.6342 205.3940 0003832 213.8406 146.2347 15.69116532 63402 TANYUSHA 2 1 42912U 98067NB 18270.45325368 .00022281 00000-0 19919-3 0 9999 2 42912 51.6372 206.4578 0003086 226.7761 133.2978 15.68291439 63419 SFERA 2 1 42913U 98067NC 18269.81226981 .00096795 00000-0 42409-3 0 9990 2 42913 51.6329 193.7444 0002042 174.3423 185.7604 15.83860417 63486 TNS 0-2 1 42914U 98067ND 18270.18120953 .00021131 00000-0 19682-3 0 9994 2 42914 51.6353 209.1580 0003376 219.5044 140.5706 15.67313835 63345 QIKCOM-1 1 42983U 98067NF 18270.41622773 .00003318 00000-0 51993-4 0 9992 2 42983 51.6393 225.0789 0003701 210.0718 150.0062 15.56904815 52148 AO-91 1 43017U 17073E 18270.02489908 .00000736 00000-0 63890-4 0 9997 2 43017 97.7088 196.9238 0258115 300.3201 57.2706 14.78215470 46157 EcAMSat 1 43019U 98067NG 18270.29863832 .00005483 00000-0 78092-4 0 9996 2 43019 51.6404 224.3026 0004713 184.7124 175.3825 15.58073876134469 PICSAT 1 43132U 18004X 18270.16063235 .00001364 00000-0 61209-4 0 9996 2 43132 97.5241 333.0723 0011591 100.9932 259.2609 15.22883579 39235 AO-92 1 43137U 18004AC 18269.75145999 .00001001 00000-0 45722-4 0 9992 2 43137 97.5237 332.6867 0011124 103.4859 256.7618 15.22912149 39167 TianYi 2 1 43155U 18008A 18270.42825389 .00000630 00000-0 41774-4 0 9990 2 43155 97.5175 343.1366 0018458 148.9505 268.0631 15.10710385 37926 Zhou Enlai 1 43156U 18008B 18270.45244390 .00000882 00000-0 57751-4 0 9992 2 43156 97.5225 343.1042 0015965 145.4642 271.4754 15.10186245 37913 TianYi 6 1 43158U 18008D 18270.16926022 .00000364 00000-0 26315-4 0 9998 2 43158 97.5171 342.5886 0014191 143.0952 274.5258 15.09866975 37840 S-Net G 1 43186U 18014G 18270.52567530 -.00000335 00000-0 -24360-4 0 9999 2 43186 97.7167 177.6451 0011222 162.6358 197.5249 14.96504561 35625 S-Net H 1 43187U 18014H 18270.32494784 -.00000326 00000-0 -23608-4 0 9992 2 43187 97.7166 177.4420 0011195 163.2235 196.9359 14.96505751 35592 S-Net J 1 43188U 18014J 18270.52541108 -.00000331 00000-0 -23994-4 0 9992 2 43188 97.7168 177.6475 0011207 162.6599 197.5007 14.96506299 35626 S-Net K 1 43189U 18014K 18270.32499998 -.00000328 00000-0 -23782-4 0 9991 2 43189 97.7165 177.4407 0011186 163.1582 197.0012 14.96505261 34146 FMN 1 1 43192U 18015A 18270.53374153 .00002531 00000-0 10962-3 0 9995 2 43192 97.3686 37.4154 0017680 139.3293 220.9267 15.23182039 36096 Shaonian Xing 1 43199U 18015H 18270.52563726 .00001904 00000-0 81277-4 0 9998 2 43199 97.3474 37.0366 0018448 151.2359 208.9900 15.23964346 36121 1KUNS-PF 1 43466U 98067NP 18270.31274969 .00013744 00000-0 18766-3 0 9992 2 43466 51.6392 227.3847 0001393 97.6923 262.4228 15.57780579 21605 UBAKUSAT 1 43467U 98067NQ 18270.33414163 .00009304 00000-0 13227-3 0 9991 2 43467 51.6393 227.5311 0003087 134.1395 225.9851 15.57152941 21610 Irazu 1 43468U 98067NR 18270.09756665 .00017524 00000-0 23284-3 0 9998 2 43468 51.6392 228.1983 0001467 88.2548 271.8612 15.58295493121562 EnduroSat One 1 43551U 98067NZ 18269.35713117 .00010138 00000-0 14938-3 0 9993 2 43551 051.6387 233.7454 0005492 226.6620 133.3914 15.56051368011671 EQUISat 1 43552U 98067PA 18270.19479297 .00009673 00000-0 14355-3 0 9991 2 43552 51.6391 229.5909 0005797 230.5718 129.4761 15.55916562 11766 UiTMSat 1 1 43589U 98067PD 18269.45593060 .00010240 00000-0 15415-3 0 9993 2 43589 051.6386 233.6533 0005068 237.9539 122.0960 15.55449752007387 Maya 1 1 43590U 98067PE 18270.16177949 .00011439 00000-0 17108-3 0 9991 2 43590 51.6390 230.1177 0005144 241.7031 118.3441 15.55493925 7423 Bhutan 1 1 43591U 98067PF 18269.13272190 .00010241 00000-0 15382-3 0 9993 2 43591 051.6386 235.2452 0005240 239.3602 120.6873 15.55509960007269 SiriusSat 1 1 43595U 98067PG 18269.85333600 .00009586 00000-0 14669-3 0 9997 2 43595 51.6389 231.8034 0003378 178.6707 181.4294 15.55089401 6551 SiriusSat 2 1 43596U 98067PH 18269.85703266 .00010414 00000-0 15953-3 0 9996 2 43596 51.6399 231.8326 0003990 185.2126 174.8824 15.54949791 6557 SurfSat 1 43614U 18070B 18270.50541747 .00002792 00000-0 79168-4 0 9990 2 43614 93.0220 254.4895 0014095 241.8067 118.1762 15.36227591 1839 CP-7 DAVE 1 43615U 18070C 18270.50532970 .00002757 00000-0 78144-4 0 9993 2 43615 93.0220 254.4899 0014069 242.5719 117.4112 15.36238319 1838 ELFIN-B 1 43616U 18070D 18269.98381141 -.00000007 00000-0 00000 0 0 9994 2 43616 93.0192 254.2592 0014349 251.2733 108.7437 15.36280575 1754 ELFIN-A 1 43617U 18070E 18270.04883533 -.00000007 00000-0 00000 0 0 9996 2 43617 93.0240 254.3057 0013494 244.7316 115.3037 15.36295615 1762 /EX